Tracking 19717 objects as of 25-Jun-2019
HD Live streaming from Space Station
objects crossing your sky now

FLOCK 2K 21

Track FLOCK 2K 21 now!
10-day predictions
FLOCK 2K 21 is classified as:


NORAD ID: 42860
Int'l Code: 2017-042AM
Perigee: 449.7 km
Apogee: 461.9 km
Inclination: 96.9 °
Period: 93.6 minutes
Semi major axis: 6826 km
RCS: Unknown
Launch date: July 14, 2017
Source: United States (US)
Launch site: TYURATAM MISSILE AND SPACE COMPLEX (TTMTR)
aabbcc
Your satellite tracking list
Your tracking list is empty




NASA's NSSDC Master Catalog

Two Line Element Set (TLE):
1 42860U 17042AM  19176.18067383  .00001638  00000-0  44135-4 0  9993
2 42860  96.9398  58.5342 0008977 188.1980 171.9122 15.39142097108967
Source of the keplerian elements: AFSPC